map of NAJ home
Great Circle Mapper logo
NAJ - Airport
Location
City:  Nakhchivan, Azerbaijan
Near (Alt.):Nakhichevan
ICAO / IATA:UBBN / NAJ

Details
Type:Airport (Aerodrome, Airfield)
Use:Public/Civil, Military
Latitude:3911'20"N (39.188806)
Longitude:4527'30"E (45.458442)
Datum:WGS 1984
Elevation:2863 ft (873 m)
Variation:5.74E (WMM2015 magnetic declination)
0.07 annual change
Runways:2
Longest:10826 × 148 ft (3300 × 45 m), paved

Time
Time Zone:UTC+4 (DST+5)
Local Time:

Weather
METAR:UBBN 182300Z 01006KT 9999 FEW100 09/04 Q1012 R14R/CLRD60 NOSIG RMK MT OP QFE684

Related Locations
Nearby:
Farthest:GMR: 11320 mi / 18218 km
Mangareva [Totegegie], Gambier Islands, PF

Find:

   beyond  
but within

Other Information
Maps:
NOTAMs:
Links:
Sources:

  
flag of Azerbaijan   

Sectional Chart

Flight Planning
at skyvector.com

Satellite Image

Google Maps Satellite View

 

Copyright © 2004-2015 Karl L. Swartz. All rights reserved.
The Great Circle Mapper name and logo are trademarks of the Great Circle Mapper.
All other trademarks mentioned herein belong to their respective owners.
Please see credits for attibutions and further copyright information.

  Follow gcmap on Facebook Follow gcmap on Twitter Follow gcmap on Google+

hCard Microformat

Geo Microformat